TimeEDT,TemperatureF,Dew PointF,Humidity,Sea Level PressureIn,VisibilityMPH,Wind Direction,Wind SpeedMPH,Gust SpeedMPH,PrecipitationIn,Events,Conditions,WindDirDegrees,DateUTC
12:51 AM,54.0,51.1,90,30.06,10.0,Calm,Calm,-,N/A,,Clear,0,2013-09-20 04:51:00
1:51 AM,50.0,48.0,93,30.07,10.0,Calm,Calm,-,N/A,,Clear,0,2013-09-20 05:51:00
2:51 AM,50.0,48.0,93,30.07,10.0,Calm,Calm,-,N/A,,Clear,0,2013-09-20 06:51:00
3:51 AM,48.9,46.9,93,30.07,10.0,Calm,Calm,-,N/A,,Clear,0,2013-09-20 07:51:00
4:51 AM,48.9,46.9,93,30.06,10.0,Calm,Calm,-,N/A,,Clear,0,2013-09-20 08:51:00
5:51 AM,46.9,45.0,93,30.07,10.0,Calm,Calm,-,N/A,,Partly Cloudy,0,2013-09-20 09:51:00
6:37 AM,44.6,42.8,93,30.08,10.0,Calm,Calm,-,N/A,,Scattered Clouds,0,2013-09-20 10:37:00
6:51 AM,46.9,45.0,93,30.08,10.0,Calm,Calm,-,N/A,,Scattered Clouds,0,2013-09-20 10:51:00
7:51 AM,51.1,48.0,89,30.10,10.0,Calm,Calm,-,N/A,,Partly Cloudy,0,2013-09-20 11:51:00
8:51 AM,55.9,51.1,84,30.10,10.0,North,4.6,-,N/A,,Clear,350,2013-09-20 12:51:00
9:51 AM,60.1,53.1,78,30.09,10.0,Calm,Calm,-,N/A,,Partly Cloudy,0,2013-09-20 13:51:00
10:51 AM,64.9,53.1,65,30.09,10.0,Calm,Calm,-,N/A,,Partly Cloudy,0,2013-09-20 14:51:00
11:51 AM,69.1,54.0,58,30.08,10.0,Calm,Calm,-,N/A,,Partly Cloudy,0,2013-09-20 15:51:00
12:51 PM,73.0,55.0,53,30.05,10.0,SSE,4.6,-,N/A,,Scattered Clouds,160,2013-09-20 16:51:00
1:51 PM,75.0,55.9,51,30.03,10.0,Variable,3.5,-,N/A,,Mostly Cloudy,0,2013-09-20 17:51:00
2:51 PM,78.1,53.1,42,30.01,10.0,Variable,5.8,-,N/A,,Mostly Cloudy,0,2013-09-20 18:51:00
3:51 PM,79.0,48.9,35,30.00,10.0,Variable,4.6,-,N/A,,Mostly Cloudy,0,2013-09-20 19:51:00
4:51 PM,78.1,52.0,40,29.99,10.0,South,10.4,-,N/A,,Mostly Cloudy,180,2013-09-20 20:51:00
5:51 PM,73.9,52.0,46,30.00,10.0,SSE,8.1,-,N/A,,Mostly Cloudy,160,2013-09-20 21:51:00
6:51 PM,69.1,52.0,54,30.00,10.0,South,8.1,-,N/A,,Mostly Cloudy,170,2013-09-20 22:51:00
7:51 PM,66.0,55.9,70,30.01,10.0,South,8.1,-,N/A,,Clear,170,2013-09-20 23:51:00
8:51 PM,64.9,57.0,75,30.02,10.0,SSW,5.8,-,N/A,,Clear,200,2013-09-21 00:51:00
9:51 PM,62.1,55.9,80,30.01,10.0,South,6.9,-,N/A,,Clear,180,2013-09-21 01:51:00
10:51 PM,60.1,55.9,86,30.01,10.0,South,8.1,-,N/A,,Partly Cloudy,180,2013-09-21 02:51:00
11:51 PM,60.1,55.0,83,30.01,10.0,SSW,6.9,-,N/A,,Clear,210,2013-09-21 03:51:00